FW8060 Weather Reports


Display with metric or nautical units.
time (UTC)temp
F
wind
direction
speed
MPH
gust
MPH
rain 1hr
in
rain 24hr
in
rain mn
in
humidity
%
barometer
mb
20260509162417 71 79 3.0 8.0 0.00 0.00 0.00 47 1015.3
20260509162238 70 49 3.0 7.0 0.00 0.00 0.00 49 1015.3
20260509160937 72 40 3.0 8.0 0.00 0.00 0.00 46 1015.3
20260509160300 71 44 3.0 10.0 0.00 0.00 0.00 47 1015.4
20260509155353 72 72 2.0 5.0 0.00 0.00 0.00 46 1015.4
20260509155226 71 46 2.0 8.0 0.00 0.00 0.00 48 1015.4
20260509152222 70 34 3.0 11.0 0.00 0.00 0.00 48 1015.3
20260509151554 71 31 3.0 11.0 0.00 0.00 0.00 44 1015.1
20260509151246 70 0 2.0 7.0 0.00 0.00 0.00 47 1015.3
20260509150245 71 15 3.0 6.0 0.00 0.00 0.00 47 1015.3
20260509144215 72 25 3.0 10.0 0.00 0.00 0.00 44 1015.3
20260509143226 72 46 2.0 6.0 0.00 0.00 0.00 45 1015.5
20260509142222 73 16 3.0 9.0 0.00 0.00 0.00 43 1015.5
20260509141312 71 51 3.0 11.0 0.00 0.00 0.00 46 1015.7
20260509141216 71 297 2.0 4.0 0.00 0.00 0.00 48 1015.6
20260509135213 72 67 2.0 8.0 0.00 0.00 0.00 44 1015.7
20260509134222 73 65 2.0 6.0 0.00 0.00 0.00 43 1015.8
20260509133218 70 51 1.0 8.0 0.00 0.00 0.00 46 1015.8
20260509132215 71 17 3.0 10.0 0.00 0.00 0.00 44 1015.8
20260509131218 72 66 3.0 9.0 0.00 0.00 0.00 43 1015.9
20260509130230 72 320 3.0 10.0 0.00 0.00 0.00 43 1016.0
20260509125221 71 50 3.0 9.0 0.00 0.00 0.00 46 1016.1
20260509124215 73 344 2.0 8.0 0.00 0.00 0.00 44 1016.3
20260509124144 73 47 2.0 7.0 0.00 0.00 0.00 45 1016.4
20260509122212 72 67 1.0 5.0 0.00 0.00 0.00 44 1016.6
20260509121208 74 36 2.0 9.0 0.00 0.00 0.00 42 1016.6
20260509120212 73 31 2.0 4.0 0.00 0.00 0.00 44 1016.8
20260509115206 72 64 3.0 9.0 0.00 0.00 0.00 44 1016.8
20260509115019 71 57 3.0 10.0 0.00 0.00 0.00 46 1017.2
20260509114303 72 105 2.0 6.0 0.00 0.00 0.00 46 1016.9
20260509113224 71 71 2.0 10.0 0.00 0.00 0.00 47 1017.1
20260509112204 69 91 2.0 9.0 0.00 0.00 0.00 49 1017.1
20260509110208 71 98 3.0 10.0 0.00 0.00 0.00 45 1017.2
20260509105410 71 101 3.0 12.0 0.00 0.00 0.00 48 1017.3
20260509105223 71 49 3.0 12.0 0.00 0.00 0.00 48 1017.3
20260509103205 70 115 2.0 5.0 0.00 0.00 0.00 47 1017.4
20260509103146 69 54 3.0 9.0 0.00 0.00 0.00 50 1017.7
20260509102322 70 11 4.0 10.0 0.00 0.00 0.00 48 1017.6
20260509101251 70 71 2.0 9.0 0.00 0.00 0.00 49 1017.6
20260509095208 69 66 3.0 11.0 0.00 0.00 0.00 48 1017.8
20260509094214 68 46 3.0 10.0 0.00 0.00 0.00 49 1017.8
20260509093210 68 347 4.0 11.0 0.00 0.00 0.00 51 1017.9
20260509092209 68 49 2.0 8.0 0.00 0.00 0.00 51 1017.9
20260509091210 68 49 2.0 7.0 0.00 0.00 0.00 53 1017.8
20260509090216 68 74 2.0 5.0 0.00 0.00 0.00 53 1017.8
20260509085201 67 59 2.0 9.0 0.00 0.00 0.00 53 1017.6
20260509084202 66 84 2.0 8.0 0.00 0.00 0.00 53 1017.7
20260509083205 65 59 4.0 7.0 0.00 0.00 0.00 56 1017.8
20260509082218 65 42 2.0 7.0 0.00 0.00 0.00 59 1017.8
20260509081203 64 61 2.0 7.0 0.00 0.00 0.00 59 1017.7
20260509080531 64 55 1.0 4.0 0.00 0.00 0.00 61 1017.7
20260509080222 64 92 2.0 8.0 0.00 0.00 0.00 60 1017.8
20260509074203 62 40 2.0 8.0 0.00 0.00 0.00 62 1017.7
20260509073158 62 63 2.0 5.0 0.00 0.00 0.00 64 1017.9
20260509072207 61 65 2.0 5.0 0.00 0.00 0.00 64 1017.8
20260509071159 60 59 2.0 5.0 0.00 0.00 0.00 68 1017.9
20260509070149 59 49 2.0 5.0 0.00 0.00 0.00 69 1017.8
20260509065200 58 41 2.0 5.0 0.00 0.00 0.00 70 1017.7
20260509064149 56 48 3.0 6.0 0.00 0.00 0.00 72 1017.7
20260509063146 56 50 2.0 5.0 0.00 0.00 0.00 74 1017.6
20260509062541 54 37 1.0 4.0 0.00 0.00 0.00 76 1017.7
20260509062229 55 45 2.0 4.0 0.00 0.00 0.00 75 1017.6
20260509060148 53 50 2.0 4.0 0.00 0.00 0.00 76 1017.6
20260509055159 53 64 1.0 3.0 0.00 0.00 0.00 78 1017.6
20260509054154 52 64 1.0 3.0 0.00 0.00 0.00 78 1017.5
20260509053146 51 64 1.0 3.0 0.00 0.00 0.00 79 1017.4
20260509052324 50 64 1.0 3.0 0.00 0.00 0.00 82 1017.3
20260509052153 51 64 1.0 3.0 0.00 0.00 0.00 80 1017.5
20260509050202 49 64 2.0 4.0 0.00 0.00 0.00 83 1017.4
20260509045347 48 64 2.0 4.0 0.00 0.00 0.00 84 1017.5
20260509045201 48 64 2.0 3.0 0.00 0.00 0.00 84 1017.4
20260509043141 48 64 2.0 4.0 0.00 0.00 0.00 84 1017.4
20260509042139 48 64 2.0 4.0 0.00 0.00 0.00 84 1017.4
20260509041140 48 64 1.0 3.0 0.00 0.00 0.00 85 1017.5
20260509040137 48 64 1.0 3.0 0.00 0.00 0.00 85 1017.5
20260509035145 48 64 2.0 3.0 0.00 0.00 0.00 84 1017.5
20260509034140 48 64 1.0 3.0 0.00 0.00 0.00 85 1017.6
20260509033142 48 64 0.0 2.0 0.00 0.00 0.00 84 1017.6
20260509032920 50 64 1.0 3.0 0.00 0.00 0.00 81 1017.7
20260509032615 50 64 1.0 2.0 0.00 0.00 0.00 81 1017.7
20260509032216 48 64 1.0 2.0 0.00 0.00 0.00 84 1017.7
20260509031141 49 64 1.0 3.0 0.00 0.00 0.00 82 1017.7
20260509024141 49 64 1.0 3.0 0.00 0.00 0.00 82 1017.7
20260509023139 49 64 1.0 3.0 0.00 0.00 0.00 82 1017.7
20260509022138 50 64 1.0 3.0 0.00 0.00 0.00 81 1017.7
20260509021134 50 64 1.0 3.0 0.00 0.00 0.00 80 1017.6
20260509020140 50 64 1.0 3.0 0.00 0.00 0.00 79 1017.8
20260509015138 51 64 1.0 3.0 0.00 0.00 0.00 78 1017.7
20260509014134 51 64 1.0 3.0 0.00 0.00 0.00 77 1017.7
20260509014052 51 64 1.0 3.0 0.00 0.00 0.00 77 1017.8
20260509012131 52 64 1.0 3.0 0.00 0.00 0.00 77 1017.8
20260509011134 52 64 1.0 3.0 0.00 0.00 0.00 78 1017.9
20260509010136 52 64 1.0 4.0 0.00 0.00 0.00 78 1017.9
20260509005136 52 64 1.0 3.0 0.00 0.00 0.00 78 1017.9
20260509004136 52 64 1.0 3.0 0.00 0.00 0.00 78 1017.9
20260509003143 52 64 1.0 2.0 0.00 0.00 0.00 79 1017.9
20260509002137 52 64 1.0 3.0 0.00 0.00 0.00 81 1017.8
20260509001228 51 64 1.0 2.0 0.00 0.00 0.00 83 1017.9
20260509001139 51 64 1.0 3.0 0.00 0.00 0.00 83 1017.9
20260508235132 52 64 1.0 3.0 0.00 0.00 0.00 83 1017.9
20260508234135 52 64 1.0 3.0 0.00 0.00 0.00 83 1018.0
20260508233142 52 64 1.0 4.0 0.00 0.00 0.00 82 1018.1
20260508232132 53 64 1.0 2.0 0.00 0.00 0.00 82 1018.0
20260508231246 53 64 1.0 3.0 0.00 0.00 0.00 81 1018.0
20260508231136 53 64 1.0 3.0 0.00 0.00 0.00 82 1018.1
20260508225121 53 64 2.0 4.0 0.00 0.00 0.00 81 1018.0
20260508224123 53 64 1.0 3.0 0.00 0.00 0.00 81 1018.0
20260508223128 53 64 1.0 3.0 0.00 0.00 0.00 80 1018.1
20260508222125 54 64 2.0 4.0 0.00 0.00 0.00 79 1018.0
20260508221558 54 51 2.0 4.0 0.00 0.00 0.00 78 1017.9
20260508221154 54 64 1.0 4.0 0.00 0.00 0.00 79 1018.0
20260508220334 55 63 1.0 4.0 0.00 0.00 0.00 78 1017.9
20260508220141 54 64 1.0 4.0 0.00 0.00 0.00 78 1017.9
20260508213121 55 63 1.0 3.0 0.00 0.00 0.00 77 1017.9
20260508212227 56 55 1.0 2.0 0.00 0.00 0.00 76 1017.7
20260508212125 55 63 1.0 4.0 0.00 0.00 0.00 77 1017.8
20260508210115 56 55 1.0 2.0 0.00 0.00 0.00 74 1017.7
20260508205118 56 55 1.0 2.0 0.00 0.00 0.00 73 1017.7
20260508204121 57 55 1.0 2.0 0.00 0.00 0.00 72 1017.7
20260508203117 57 55 0.0 2.0 0.00 0.00 0.00 70 1017.7
20260508202548 58 55 0.0 1.0 0.00 0.00 0.00 65 1017.6
20260508202152 58 55 0.0 0.0 0.00 0.00 0.00 68 1017.7
20260508200113 58 55 0.0 2.0 0.00 0.00 0.00 63 1017.5
20260508195437 60 55 1.0 3.0 0.00 0.00 0.00 60 1017.3
20260508195149 59 55 0.0 2.0 0.00 0.00 0.00 61 1017.5
20260508193115 60 62 1.0 6.0 0.00 0.00 0.00 59 1017.3
20260508192451 62 38 2.0 4.0 0.00 0.00 0.00 56 1017.2
20260508192136 61 44 1.0 4.0 0.00 0.00 0.00 57 1017.2
20260508190115 62 44 2.0 6.0 0.00 0.00 0.00 55 1017.0
20260508185106 63 38 2.0 6.0 0.00 0.00 0.00 53 1016.9
20260508184107 64 87 1.0 2.0 0.00 0.00 0.00 53 1016.6
20260508183106 64 0 0.0 4.0 0.00 0.00 0.00 53 1016.7
20260508182105 65 69 0.0 3.0 0.00 0.00 0.00 52 1016.7
20260508181104 65 69 1.0 3.0 0.00 0.00 0.00 53 1016.6
20260508180108 65 69 0.0 2.0 0.00 0.00 0.00 51 1016.5
20260508175453 66 59 2.0 5.0 0.00 0.00 0.00 49 1016.3
20260508175152 65 49 2.0 5.0 0.00 0.00 0.00 51 1016.4
20260508173102 67 52 2.0 6.0 0.00 0.00 0.00 48 1016.2
20260508172747 67 54 1.0 4.0 0.00 0.00 0.00 48 1016.2
20260508172202 67 39 2.0 4.0 0.00 0.00 0.00 48 1016.1
20260508170109 67 61 1.0 3.0 0.00 0.00 0.00 47 1016.2
20260508165109 67 41 1.0 4.0 0.00 0.00 0.00 48 1016.1
20260508164116 66 53 1.0 5.0 0.00 0.00 0.00 51 1016.2
20260508163109 66 57 2.0 5.0 0.00 0.00 0.00 49 1016.1